Regional Weather Roundup
Issued by NWS Upton, NY

Current Version | Previous Version | Graphics & Text | Print | Product List | Glossary Off
Versions: 1 2 3 4 5 6 7 8 9 10 11 12 13 14 15 16 17 18 19 20 21 22 23 24 25 26 27 28 29 30 31 32 33 34 35 36 37 38 39 40 41 42 43 44 45 46 47 48 49 50

000
ASUS41 KOKX 061704
RWROKX

REGIONAL WEATHER ROUNDUP
NATIONAL WEATHER SERVICE NEW YORK NY
1200 PM EST SAT FEB 06 2016

NOTE: "FAIR" INDICATES FEW OR NO CLOUDS BELOW 12,000 FEET WITH NO
SIGNIFICANT WEATHER AND/OR OBSTRUCTIONS TO VISIBILITY.

NYZ071-072-176-178-NJZ106-104-061800-
NEW YORK CITY METRO AREA


CITY           SKY/WX    TMP DP  RH WIND       PRES   REMARKS
CENTRAL PARK   MOSUNNY   38  20  48 VRB6      30.41F WCI  33
LAGUARDIA APRT PTSUNNY   38  19  46 SW12      30.39F WCI  30
KENNEDY INTL   PTSUNNY   36  22  56 SW13      30.42F WCI  27
NEWARK/LIBERTY PTSUNNY   38  22  52 SW9       30.40F WCI  31
BRNX BOT. GARD   N/A     39  19  45 SE5       30.40F
TETERBORO      MOSUNNY   38  17  42 S9        30.38F WCI  31
$$

NYZ177-179-078>081-061800-
LONG ISLAND NEW YORK

CITY           SKY/WX    TMP DP  RH WIND       PRES   REMARKS
FARMINGDALE    MOSUNNY   37  20  50 SW9       30.40F WCI  30
ISLIP          CLOUDY    36  22  56 SW7       30.38F WCI  30
SHIRLEY        MOSUNNY   35  24  64 SW7       30.40F WCI  29
RIVERHEAD        N/A     39  23  52 W3        30.42F
WESTHAMPTON      N/A    N/A N/A N/A MISG      30.41F
EAST HAMPTON   SUNNY     36  21  55 VRB5      30.40F WCI  32
MONTAUK POINT    N/A     35  23  61 W7        30.40F WCI  29
$$

NYZ052-065-067-061800-
HUDSON VALLEY

CITY           SKY/WX    TMP DP  RH WIND       PRES   REMARKS
WHITE PLAINS   CLOUDY    35  17  47 SW6       30.35F WCI  30
NEWBURGH       PTSUNNY   37  19  48 SW8       30.34F WCI  31
MONTGOMERY     CLOUDY    38  20  48 SW12      30.32F WCI  30
POUGHKEEPSIE   MOSUNNY   38  17  42 SW8       30.34F WCI  32
ALBANY         PTSUNNY   38  18  44 S14       30.28F WCI  30
$$

NJZ001-105-106-008-010-013-015-019>022-104-061800-
NEW JERSEY

CITY           SKY/WX    TMP DP  RH WIND       PRES   REMARKS
NEWARK/LIBERTY PTSUNNY   38  22  52 SW9       30.40F WCI  31
TETERBORO      MOSUNNY   38  17  42 S9        30.38F WCI  31
CALDWELL       MOSUNNY   37  17  44 W7        30.39F WCI  32
MORRISTOWN     PTSUNNY   36  18  48 SW10      30.40F WCI  28
SOMERVILLE     MOSUNNY   38  19  46 VRB3      30.38F
SUSSEX         SUNNY     37  19  48 S10       30.33F WCI  30
ANDOVER          N/A     37  17  44 SW9       30.34F WCI  30
TRENTON        SUNNY     38  21  50 SW9       30.40F WCI  31
MILLVILLE      MOSUNNY   40  24  53 SW10      30.43F WCI  33
ATLANTIC CITY  CLOUDY    38  21  50 VRB7      30.43F WCI  33
WRIGHTSTOWN    MOSUNNY   37  23  56 SW7       30.38F WCI  32
TOMS RIVER     MOSUNNY   37  21  52 W10       30.42F WCI  30
BELMAR         MOSUNNY   37  18  44 SW7       30.40F WCI  32
$$

PAZ047>061-062-071-061800-
EASTERN PENNSYLVANIA

CITY           SKY/WX    TMP DP  RH WIND       PRES   REMARKS
PHILADELPHIA   PTSUNNY   39  17  41 SW10      30.42F WCI  32
ALLENTOWN      SUNNY     39  20  46 W10       30.37F WCI  32
SCRANTON       CLOUDY    36  19  50 W8        30.29F WCI  30
$$

CTZ002-004>006-009-010-012-RIZ004-006-007-MAZ004-011-015-061800-
SOUTHERN NEW ENGLAND
 IN CT

CITY           SKY/WX    TMP DP  RH WIND       PRES   REMARKS
BRADLEY INTL   PTSUNNY   32  22  66 S8        30.34F WCI  25
HARTFORD       MOSUNNY   35  21  56 S7        30.36F WCI  29
DANBURY        CLOUDY    35  15  44 W10       30.35F WCI  27
WTRBRY/OXFORD  MOSUNNY   34  14  44 W6        30.34F WCI  29
BRIDGEPORT     CLOUDY    37  25  61 SW9       30.38F WCI  30
MERIDEN        MOSUNNY   37  20  50 S8        30.36F WCI  31
NEW HAVEN      MOSUNNY   34  23  64 VRB6      30.38F WCI  29
CHESTER        FAIR      36  21  55 S8        30.35F WCI  29
GROTON         SUNNY     34  26  72 SW9       30.38F WCI  27
WILLIMANTIC    MOSUNNY   34  24  67 S7        30.36F WCI  28

 IN RI

CITY           SKY/WX    TMP DP  RH WIND       PRES   REMARKS
PROVIDENCE     PTSUNNY   34  22  61 SW7       30.37F WCI  28
BLOCK ISLAND   SUNNY     36  21  55 W8        30.38F WCI  29
WESTERLY       SUNNY     34  25  69 SW6       30.39F WCI  29

 IN MA

CITY           SKY/WX    TMP DP  RH WIND       PRES   REMARKS
BOSTON         PTSUNNY   32  24  72 SW10      30.34F WCI  24
WORCESTER        N/A    N/A N/A N/A MISG      30.28F
WESTFIELD      MOSUNNY   33  21  61 S8        30.32F WCI  26
PROVINCETOWN   CLOUDY    33  23  66 SW9       30.37F WCI  25
NANTUCKET      CLOUDY    34  20  56 W7        30.39F WCI  28
$$

ANZ330-335-338-340-345-350-353-355-061800-
COASTAL MARINE OBSERVATIONS


STATION/POSITION TIME  SKY/WX   TEMP    WIND        PRES    VSBY  WAVE
                                AIR SEA DIR/SP/G                  HT/PER
                 (UTC)          (F)     (DEG/KT/KT) (MB)    (MI)  (FT/S)
NY HARB ENTRANCE 1550            36 44  250/  8/ 10 1030.3          2/10
4S FIRE IS       NOT AVBL
20S FIRE ISLAND  1550            36 45  280/  8/ 10 1030.7          2/10
GREAT SOUTH BAY  NOT AVBL
23SW MTP         1650            35 46  260/  6/ 10 1029.5          2/10
HUDSON CANYON    1550            40 51              1030.7          3/ 5
KINGS POINT      1600            36 38  270/  6/  9 1029.5
EXECUTION ROCKS  NOT AVBL
CENTRAL LI SOUND 1600            34     250/  8/ 12   N/A           1/ 2
EASTERN LI SOUND 1600            35 42  270/ 10/ 12   N/A
ROBBINS REEF     1600            35     240/  9/ 11 1029.3
$$


>>>>>>>>>>>>>>>>>>>>>>>>>>>> KEY <<<<<<<<<<<<<<<<<<<<<<<<<<<
>                                                          <
>     SKY/WX - SKY CONDITION/PRESENT WEATHER               <
>     TMP    - TEMPERATURE IN FAHRENHEIT                   <
>     DP     - DEWPOINT IN FAHRENHEIT                      <
>     RH     - RELATIVE HUMIDITY IN PERCENT                <
>     WIND   - DIRECTION AND SPEED IN MPH                  <
>     PRES   - MEAN SEA LEVEL PRESSURE IN INCHES OF HG     <
>     WCI    - WIND CHILL INDEX                            <
>     VSB    - VISIBILITY IN MILES                         <
>     HX     - HEAT INDEX                                  <
>     TC     - TEMPERATURE IN CELSIUS                      <
>     VRB    - VARIABLE WIND DIRECTION                     <
>                                                          <
>>>>>>>>>>>>>>>>>>>>>>>>>>>> KEY <<<<<<<<<<<<<<<<<<<<<<<<<<<





USA.gov is the U.S. government's official web portal to all federal, state and local government web resources and services.